EDMAEDDN

Guest
Details From EDMA - Augsburg
To EDDN - Nurnberg
Flight Number -
Tags Generated
Created
Modified
Stats Distance 65 nm / 120 km
Max Altitude 0 ft / 0 m
Waypoints 2
Social Downloads 0
Likes 0
Share VATSIM

Download

Looking for another format? Having issues loading an existing format? Contact us
Advertisement - Login to hide

Notes

Generated

Route

EDMA EDDN

ID Type Via Altitude Latitude Longitude Leg Dist Tot Dist Heading (true) Name
O EDMA APT - 0 ft / 0 m 48.42183˚ 10.93031˚ - 0 nm - Augsburg
O EDDN APT - 0 ft / 0 m 49.50055˚ 11.05918˚ 64 nm 64 nm 4° / 5° -

Altitude Profile

Advertisement - Login to hide

EDMA

Details ICAO EDMA (AGB)
Name Augsburg
Region Germany - Civil
Timezone Europe/Berlin (UTC+2.0)
Stats Elevation 1,515 ft / 462 m (AMSL)
Location 48.424245° 10.934277°
Runways 2
Magnetic Variation 3.009° E

METAR

EDMA 271150Z 36005KT 320V030 CAVOK 24/16 Q1019

Decode

TAF

Not found

Departure Runways

ID Width Length Bearing (true) Bearing (mag) Surface Threshold Offset Overrun Length
07 98 ft / 30 m 4,186 ft / 1,276 m 71.38° 68.37° Asphalt 0 ft / 0 m 164 ft / 50 m
07L 100 ft / 30 m 3,320 ft / 1,012 m 71.47° 68.46° Grass 0 ft / 0 m 0 ft / 0 m
25 98 ft / 30 m 4,186 ft / 1,276 m 251.39° 248.38° Asphalt 0 ft / 0 m 164 ft / 50 m
25R 100 ft / 30 m 3,320 ft / 1,012 m 251.48° 248.47° Grass 0 ft / 0 m 0 ft / 0 m

EDDN

Details ICAO EDDN (NUE)
Name Nurnberg
Region Germany - Civil
Timezone Europe/Berlin (UTC+2.0)
Stats Elevation 1,045 ft / 319 m (AMSL)
Location 49.498744° 11.077580°
Runways 1
Magnetic Variation 3.075° E

METAR

EDDN 271220Z VRB02KT 9999 FEW040 SCT150 BKN300 27/14 Q1018 NOSIG

Decode

TAF

TAF EDDN 271100Z 2712/2812 11005KT CAVOK PROB30 TEMPO 2713/2718 12015G25KT TSRA SCT050CB BECMG 2717/2719 VRB03KT BECMG 2806/2808 08006KT

Decode

Destination Runways

ID Width Length Bearing (true) Bearing (mag) Surface Threshold Offset Overrun Length
10 148 ft / 45 m 8,819 ft / 2,688 m 98.60° 95.52° Asphalt 0 ft / 0 m 0 ft / 0 m
28 148 ft / 45 m 8,819 ft / 2,688 m 278.63° 275.55° Asphalt 0 ft / 0 m 0 ft / 0 m

Approach Navaids

Runway Type Ident Frequency Range Bearing (true) Bearing (mag) Slope Elevation
10 Localiser INUE 111.30 MHz 18 nm / 33 km 98.64° 95.56° - 1,046 ft / 319 m (AMSL)
10 Glidescope INUE 111.30 MHz 10 nm / 19 km 98.61° 95.54° 3.00° 1,022 ft / 312 m (AMSL)
28 Localiser INUW 109.10 MHz 23 nm / 43 km 278.59° 275.51° - 1,122 ft / 342 m (AMSL)
28 Glidescope INUW 109.10 MHz 10 nm / 19 km 278.62° 275.54° 3.00° 1,046 ft / 319 m (AMSL)

Popular Alternatives